This demonstration page uses our WeatherBlox Daily Observations layout. Learn more.

40.92945, -100.16068

Hourly Observations for March 2, 2015

Temp ( °F °C ) Dew Point ( °F °C ) Humidity (%) Winds ( mph kmh ) Pressure ( in mb ) Visibility ( mi km ) Precip ( " mm )
12:15 am 00:15 Clear 26 -3.6 15 -9.7 63 63 E 6 9 30.53 1034 10 16.0934 N/A
12:35 am 00:35 Clear 25 -4 13 -10.3 62 62 E 8 13 30.53 1034 10 16.0934 N/A
12:55 am 00:55 Clear 25 -3.7 14 -10.2 61 61 E 7 11 30.53 1034 10 16.0934 N/A
1:15 am 01:15 Clear 28 -2.3 14 -10 56 56 E 7 11 30.53 1034 10 16.0934 N/A
1:35 am 01:35 Clear 29 -1.8 13 -10.3 53 53 E 7 11 30.53 1034 10 16.0934 N/A
1:55 am 01:55 Clear 29 -1.8 13 -10.3 53 53 ESE 8 13 30.53 1034 10 16.0934 N/A
2:15 am 02:15 Partly Cloudy 29 -1.5 13 -10.5 51 51 ESE 12 19 30.48 1032 10 16.0934 N/A
2:35 am 02:35 Mostly Cloudy 30 -1.3 13 -10.5 50 50 ESE 10 17 30.48 1032 10 16.0934 N/A
2:55 am 02:55 Cloudy 30 -1.3 13 -10.5 50 50 ESE 9 15 30.48 1032 10 16.0934 N/A
3:15 am 03:15 Cloudy 29 -1.5 14 -10 53 53 SE 7 11 30.48 1032 10 16.0934 N/A
3:35 am 03:35 Cloudy 29 -1.6 14 -9.8 54 54 SE 7 11 30.45 1031 10 16.0934 N/A
3:55 am 03:55 Cloudy 29 -1.5 15 -9.5 55 55 ESE 8 13 30.45 1031 10 16.0934 N/A
4:15 am 04:15 Cloudy 30 -1.1 14 -9.8 52 52 ESE 9 15 30.45 1031 10 16.0934 N/A
4:35 am 04:35 Cloudy 30 -1.1 15 -9.6 53 53 SE 9 15 30.42 1030 10 16.0934 N/A
4:55 am 04:55 Cloudy 30 -1.2 15 -9.7 53 53 SE 8 13 30.45 1031 10 16.0934 N/A
5:15 am 05:15 Cloudy 30 -1.3 15 -9.5 54 54 SE 6 9 30.42 1030 10 16.0934 N/A
5:35 am 05:35 Cloudy 29 -1.4 15 -9.3 55 55 ESE 8 13 30.42 1030 10 16.0934 N/A
5:55 am 05:55 Cloudy 29 -1.5 16 -9 57 57 SE 7 11 30.42 1030 10 16.0934 N/A
6:15 am 06:15 Cloudy 30 -1.3 16 -8.7 58 58 SE 7 11 30.42 1030 10 16.0934 N/A
6:35 am 06:35 Cloudy 30 -1 17 -8.1 59 59 SSE 9 15 30.42 1030 10 16.0934 N/A
6:55 am 06:55 Cloudy 30 -0.9 18 -7.6 61 61 SSE 8 13 30.42 1030 10 16.0934 N/A
7:15 am 07:15 Cloudy 31 -0.8 19 -7.2 62 62 SSE 9 15 30.42 1030 10 16.0934 N/A
7:35 am 07:35 Cloudy 31 -0.5 20 -6.5 64 64 S 14 22 30.42 1030 10 16.0934 N/A
7:55 am 07:55 Cloudy 31 -0.8 22 -5.6 70 70 S 13 20 30.42 1030 10 16.0934 N/A
8:15 am 08:15 Cloudy 31 -0.7 22 -5.3 71 71 S 13 20 30.42 1030 10 16.0934 N/A
8:35 am 08:35 Cloudy 31 -0.5 23 -5 72 72 S 15 24 30.42 1030 10 16.0934 N/A
8:55 am 08:55 Cloudy 32 -0.1 23 -5 70 70 S 16 26 30.42 1030 10 16.0934 N/A
9:15 am 09:15 Partly Cloudy 33 0.6 22 -5.5 64 64 S 21 33 30.36 1028 10 16.0934 N/A
9:35 am 09:35 Sunny 34 1 21 -6.1 59 59 S 23 37 30.36 1028 10 16.0934 N/A
9:55 am 09:55 Partly Cloudy 33 0.8 20 -6.8 57 57 S 25 41 30.33 1027 10 16.0934 N/A
10:15 am 10:15 Partly Cloudy 35 1.7 17 -8.1 49 49 S 26 43 30.33 1027 10 16.0934 N/A
10:35 am 10:35 Mostly Cloudy 35 1.5 16 -9.1 46 46 S 26 43 30.33 1027 10 16.0934 N/A
10:55 am 10:55 Cloudy 35 1.5 15 -9.4 45 45 S 25 41 30.33 1027 10 16.0934 N/A
11:15 am 11:15 Cloudy 35 1.6 15 -9.4 44 44 S 21 33 30.3 1026 10 16.0934 N/A
11:35 am 11:35 Cloudy 35 1.8 15 -9.6 43 43 S 28 44 30.3 1026 10 16.0934 N/A
11:55 am 11:55 Cloudy 36 2.3 15 -9.7 41 41 S 25 41 30.27 1025 10 16.0934 N/A
12:15 pm 12:15 Cloudy 37 3 15 -9.4 40 40 S 26 43 30.24 1024 10 16.0934 N/A
12:35 pm 12:35 Cloudy 38 3.5 13 -10.5 35 35 S 35 56 30.21 1023 10 16.0934 N/A
12:55 pm 12:55 Cloudy 38 3.3 13 -10.3 37 37 SSE 30 48 30.18 1022 10 16.0934 N/A
1:15 pm 13:15 Cloudy 39 4 13 -10.7 34 34 S 32 52 30.18 1022 10 16.0934 N/A
1:35 pm 13:35 Cloudy 38 3.2 14 -9.9 38 38 S 26 43 30.15 1021 10 16.0934 N/A
1:55 pm 13:55 Cloudy 39 4 16 -9 39 39 S 28 44 30.09 1019 10 16.0934 N/A
2:15 pm 14:15 Cloudy 40 4.6 17 -8.2 39 39 S 24 39 30.09 1019 10 16.0934 N/A
2:35 pm 14:35 Cloudy 40 4.6 18 -7.9 40 40 S 26 43 30.09 1019 10 16.0934 N/A
2:55 pm 14:55 Cloudy 38 3.2 18 -7.9 44 44 S 25 41 30.09 1019 10 16.0934 N/A
3:15 pm 15:15 Partly Cloudy 39 3.7 18 -7.8 43 43 S 25 41 30.06 1018 10 16.0934 N/A
3:35 pm 15:35 Partly Cloudy 39 4 19 -7.5 43 43 S 25 41 30.03 1017 10 16.0934 N/A
3:55 pm 15:55 Partly Cloudy 38 3.6 19 -7.1 46 46 S 23 37 30.03 1017 10 16.0934 N/A
4:15 pm 16:15 Partly Cloudy 38 3.1 19 -7 48 48 S 23 37 30.06 1018 10 16.0934 N/A
4:35 pm 16:35 Sunny 37 2.9 19 -7 49 49 S 24 39 30.03 1017 10 16.0934 N/A
4:55 pm 16:55 Partly Cloudy 37 2.7 19 -7 49 49 S 20 31 30.03 1017 10 16.0934 N/A
5:15 pm 17:15 Partly Cloudy 35 1.8 19 -7 52 52 S 21 33 30.03 1017 10 16.0934 N/A
5:35 pm 17:35 Mostly Cloudy 35 1.5 20 -6.6 55 55 S 18 30 30 1016 10 16.0934 N/A
5:55 pm 17:55 Cloudy 34 1.2 20 -6.7 56 56 SSE 21 33 30 1016 10 16.0934 N/A
6:15 pm 18:15 Cloudy 33 0.7 20 -6.6 59 59 S 21 33 30 1016 10 16.0934 N/A
6:35 pm 18:35 Cloudy 33 0.5 20 -6.5 60 60 S 18 30 29.97 1015 10 16.0934 N/A
6:55 pm 18:55 Cloudy 32 0.2 21 -6.3 62 62 S 22 35 29.97 1015 10 16.0934 N/A
7:15 pm 19:15 Cloudy 32 0.1 21 -6 64 64 S 18 30 29.97 1015 10 16.0934 N/A
7:35 pm 19:35 Cloudy 32 0 21 -6 64 64 S 18 30 29.97 1015 10 16.0934 N/A
7:55 pm 19:55 Cloudy 32 0 21 -6 64 64 SSE 17 28 29.94 1014 10 16.0934 N/A
8:15 pm 20:15 Cloudy 32 0 21 -6.2 63 63 SSE 16 26 29.94 1014 10 16.0934 N/A
8:35 pm 20:35 Cloudy 32 0 20 -6.5 62 62 SSE 17 28 29.91 1013 10 16.0934 N/A
8:55 pm 20:55 Cloudy 32 -0.2 20 -6.4 63 63 SSE 17 28 29.88 1012 10 16.0934 N/A
9:15 pm 21:15 Cloudy 31 -0.3 21 -6.3 64 64 SSE 18 30 29.88 1012 10 16.0934 N/A
9:35 pm 21:35 Cloudy 31 -0.4 21 -6 66 66 SSE 17 28 29.88 1012 10 16.0934 N/A
9:55 pm 21:55 Cloudy 31 -0.5 21 -6 67 67 SSE 15 24 29.85 1011 10 16.0934 N/A
10:15 pm 22:15 Cloudy 31 -0.6 21 -6 67 67 SSE 16 26 29.85 1011 10 16.0934 N/A
10:35 pm 22:35 Cloudy 31 -0.7 21 -6 68 68 SSE 14 22 29.83 1010 10 16.0934 N/A
10:55 pm 22:55 Cloudy 30 -1 21 -6 69 69 SSE 15 24 29.8 1009 10 16.0934 N/A
11:15 pm 23:15 Cloudy 30 -1 21 -6 69 69 SSE 16 26 29.8 1009 10 16.0934 N/A
11:35 pm 23:35 Cloudy 30 -1.1 21 -6 70 70 SSE 15 24 29.8 1009 10 16.0934 N/A
11:55 pm 23:55 Cloudy 29 -1.5 21 -6.2 71 71 SSE 15 24 29.8 1009 10 16.0934 N/A

Powered by AerisWeather